QTR915 NZAA-OTHH

Flight info

Callsign QTR915
Flight time N/A
Altitude 34000
Route MADEP N774 TESAT A576 PKS/N0491F360 J141 LEC T21 NONAX/N0493F380 T21 PD N509 MUTMI/N0487F400 N509 ELATI N640 KAT R461 MDI M300 KADOL/N0483F430 M300 EMURU N563 SODEX/N0510F340 N563 VUXOD
Aircraft A359/H-SDE2E3GHIJ3J4J5LM1ORWXY/LB1D1

Departure

Time N/A
Airport Auckland International Airport (NZAA)

Arrival

Time 2026-05-06 08:24
Airport Hamad International Airport (OTHH)
Time Latitude Longitude Altitude Speed Heading
2026-05-06 06:00 16.35342 67.80682 39905 ft 488 kts 303°
2026-05-06 06:00 16.39089 67.74776 39910 ft 488 kts 303°
2026-05-06 06:01 16.42828 67.68872 39910 ft 488 kts 303°
2026-05-06 06:01 16.45933 67.63965 39898 ft 488 kts 303°
2026-05-06 06:02 16.49675 67.58046 39914 ft 488 kts 303°
2026-05-06 06:02 16.53415 67.52126 39901 ft 489 kts 303°
2026-05-06 06:03 16.57148 67.46212 39918 ft 488 kts 303°
2026-05-06 06:03 16.60856 67.40333 39915 ft 489 kts 303°
2026-05-06 06:04 16.64593 67.34403 39913 ft 489 kts 303°
2026-05-06 06:04 16.68326 67.28475 39919 ft 489 kts 303°
2026-05-06 06:05 16.72054 67.22549 39918 ft 489 kts 303°
2026-05-06 06:05 16.75781 67.16620 39918 ft 489 kts 303°
2026-05-06 06:06 16.79508 67.10686 39917 ft 489 kts 303°
2026-05-06 06:06 16.83235 67.04746 39905 ft 489 kts 303°
2026-05-06 06:07 16.86960 66.98805 39907 ft 488 kts 303°
2026-05-06 06:07 16.90656 66.92905 39904 ft 488 kts 303°
2026-05-06 06:08 16.94375 66.86964 39902 ft 488 kts 303°
2026-05-06 06:08 16.98092 66.81020 39916 ft 488 kts 303°
2026-05-06 06:09 17.01800 66.75087 39914 ft 488 kts 303°
2026-05-06 06:09 17.05505 66.69152 39919 ft 487 kts 303°
2026-05-06 06:10 17.09205 66.63221 39917 ft 487 kts 303°
2026-05-06 06:10 17.12911 66.57274 39910 ft 487 kts 303°
2026-05-06 06:11 17.16586 66.51372 39904 ft 487 kts 303°
2026-05-06 06:11 17.20285 66.45426 39904 ft 487 kts 303°
2026-05-06 06:12 17.23981 66.39481 39901 ft 487 kts 303°
2026-05-06 06:12 17.27673 66.33537 39903 ft 486 kts 303°
2026-05-06 06:13 17.31361 66.27593 39921 ft 486 kts 303°
2026-05-06 06:13 17.35018 66.21695 39922 ft 486 kts 303°
2026-05-06 06:14 17.38700 66.15752 39906 ft 486 kts 303°
2026-05-06 06:14 17.42375 66.09813 39906 ft 486 kts 303°
2026-05-06 06:15 17.46053 66.03866 39905 ft 486 kts 303°
2026-05-06 06:15 17.49724 65.97923 39906 ft 486 kts 303°
2026-05-06 06:16 17.53396 65.91975 39910 ft 486 kts 303°
2026-05-06 06:16 17.57068 65.86021 39925 ft 485 kts 303°
2026-05-06 06:17 17.60730 65.80078 39910 ft 485 kts 303°
2026-05-06 06:17 17.64397 65.74199 39912 ft 485 kts 304°
2026-05-06 06:18 17.68193 65.68339 39910 ft 485 kts 304°
2026-05-06 06:18 17.71996 65.62479 39916 ft 485 kts 304°
2026-05-06 06:19 17.75772 65.56620 39925 ft 485 kts 304°
2026-05-06 06:19 17.79545 65.50744 39911 ft 485 kts 304°
2026-05-06 06:20 17.83295 65.44892 39912 ft 485 kts 304°
2026-05-06 06:20 17.87062 65.39018 39910 ft 485 kts 304°
2026-05-06 06:21 17.90831 65.33126 39924 ft 485 kts 304°
2026-05-06 06:21 17.94597 65.27235 39912 ft 485 kts 304°
2026-05-06 06:22 17.98362 65.21347 39931 ft 485 kts 304°
2026-05-06 06:22 18.02127 65.15459 39915 ft 486 kts 304°
2026-05-06 06:23 18.05885 65.09563 39917 ft 485 kts 304°
2026-05-06 06:23 18.09618 65.03706 39915 ft 485 kts 303°
2026-05-06 06:24 18.13375 64.97810 39915 ft 485 kts 304°
2026-05-06 06:24 18.17124 64.91909 39914 ft 485 kts 304°
2026-05-06 06:25 18.20875 64.85999 39915 ft 485 kts 304°
2026-05-06 06:26 18.26500 64.77137 39914 ft 485 kts 303°
2026-05-06 06:26 18.30254 64.71216 39918 ft 486 kts 303°
2026-05-06 06:27 18.33976 64.65341 39920 ft 486 kts 303°
2026-05-06 06:27 18.37720 64.59426 39919 ft 485 kts 303°
2026-05-06 06:28 18.41453 64.53501 39917 ft 485 kts 303°
2026-05-06 06:28 18.45185 64.47579 39912 ft 486 kts 303°
2026-05-06 06:29 18.48938 64.41654 39914 ft 485 kts 303°
2026-05-06 06:29 18.52678 64.35736 39915 ft 485 kts 303°
2026-05-06 06:30 18.56420 64.29801 39915 ft 486 kts 303°
2026-05-06 06:30 18.60153 64.23868 39918 ft 486 kts 303°
2026-05-06 06:31 18.63888 64.17923 39917 ft 486 kts 303°
2026-05-06 06:31 18.67615 64.11978 39914 ft 486 kts 303°
2026-05-06 06:32 18.71326 64.06075 39915 ft 486 kts 303°
2026-05-06 06:32 18.75063 64.00122 39916 ft 486 kts 303°
2026-05-06 06:33 18.78788 63.94175 39914 ft 486 kts 303°
2026-05-06 06:33 18.82514 63.88221 39914 ft 485 kts 303°
2026-05-06 06:34 18.86234 63.82272 39913 ft 485 kts 303°
2026-05-06 06:34 18.89950 63.76322 39917 ft 485 kts 303°
2026-05-06 06:35 18.93645 63.70402 39915 ft 485 kts 303°
2026-05-06 06:35 18.97361 63.64443 39913 ft 485 kts 303°
2026-05-06 06:36 19.01070 63.58489 39921 ft 485 kts 303°
2026-05-06 06:36 19.04780 63.52531 39914 ft 484 kts 303°
2026-05-06 06:37 19.08462 63.46610 39915 ft 484 kts 303°
2026-05-06 06:37 19.12161 63.40659 39914 ft 484 kts 303°
2026-05-06 06:38 19.15860 63.34699 39914 ft 484 kts 302°
2026-05-06 06:38 19.19555 63.28743 39916 ft 484 kts 302°
2026-05-06 06:39 19.23248 63.22783 39913 ft 484 kts 302°
2026-05-06 06:39 19.26941 63.16818 39914 ft 484 kts 302°
2026-05-06 06:40 19.30632 63.10850 39915 ft 484 kts 302°
2026-05-06 06:40 19.34320 63.04880 39914 ft 484 kts 302°
2026-05-06 06:41 19.38009 62.98903 39914 ft 484 kts 302°
2026-05-06 06:41 19.41667 62.92972 39915 ft 484 kts 302°
2026-05-06 06:42 19.45349 62.86995 39914 ft 484 kts 302°
2026-05-06 06:42 19.49026 62.81018 39910 ft 484 kts 302°
2026-05-06 06:43 19.52708 62.75030 39910 ft 484 kts 302°
2026-05-06 06:43 19.56379 62.69053 39913 ft 484 kts 302°
2026-05-06 06:44 19.60049 62.63074 39911 ft 484 kts 302°
2026-05-06 06:44 19.63716 62.57091 39913 ft 484 kts 302°
2026-05-06 06:45 19.67358 62.51143 39911 ft 483 kts 302°
2026-05-06 06:45 19.71019 62.45158 39914 ft 483 kts 302°
2026-05-06 06:46 19.74679 62.39169 39911 ft 483 kts 302°
2026-05-06 06:46 19.78337 62.33178 39909 ft 483 kts 302°
2026-05-06 06:47 19.81994 62.27183 39912 ft 483 kts 302°
2026-05-06 06:47 19.85649 62.21184 39911 ft 483 kts 302°
2026-05-06 06:48 19.89278 62.15224 39912 ft 483 kts 302°
2026-05-06 06:48 19.92920 62.09234 39912 ft 483 kts 302°
2026-05-06 06:49 19.96560 62.03243 39909 ft 483 kts 302°
2026-05-06 06:49 19.99590 61.98252 39915 ft 482 kts 302°
2026-05-06 06:50 20.03227 61.92252 39912 ft 482 kts 302°
2026-05-06 06:50 20.06863 61.86250 39913 ft 482 kts 302°
2026-05-06 06:51 20.10492 61.80252 39911 ft 482 kts 302°
2026-05-06 06:51 20.14122 61.74245 39911 ft 482 kts 302°
2026-05-06 06:52 20.17744 61.68249 39911 ft 482 kts 302°
2026-05-06 06:52 20.21377 61.62227 40202 ft 483 kts 301°
2026-05-06 06:52 20.23186 61.59225 40493 ft 481 kts 301°
2026-05-06 06:53 20.24991 61.56229 40779 ft 480 kts 301°
2026-05-06 06:53 20.26770 61.53276 41034 ft 479 kts 301°
2026-05-06 06:53 20.28565 61.50292 41291 ft 478 kts 301°
2026-05-06 06:53 20.30362 61.47304 41539 ft 477 kts 301°
2026-05-06 06:54 20.32149 61.44332 41770 ft 476 kts 301°
2026-05-06 06:54 20.33938 61.41355 42001 ft 476 kts 301°
2026-05-06 06:54 20.35726 61.38379 42244 ft 475 kts 302°
2026-05-06 06:54 20.37506 61.35414 42473 ft 474 kts 302°
2026-05-06 06:55 20.39259 61.32492 42671 ft 474 kts 302°
2026-05-06 06:55 20.41035 61.29530 42848 ft 474 kts 302°
2026-05-06 06:55 20.42811 61.26568 42904 ft 474 kts 301°
2026-05-06 06:56 20.46357 61.20647 42908 ft 473 kts 302°
2026-05-06 06:56 20.49895 61.14734 42907 ft 473 kts 301°
2026-05-06 06:57 20.53435 61.08813 42903 ft 473 kts 301°
2026-05-06 06:57 20.56970 61.02893 42910 ft 473 kts 301°
2026-05-06 06:58 20.60490 60.96997 42909 ft 473 kts 301°
2026-05-06 06:58 20.64520 60.91438 42910 ft 474 kts 309°
2026-05-06 06:59 20.68784 60.86061 42913 ft 474 kts 309°
2026-05-06 06:59 20.73080 60.80714 42910 ft 474 kts 309°
2026-05-06 07:00 20.77342 60.75398 42913 ft 474 kts 309°
2026-05-06 07:00 20.81620 60.70037 42908 ft 474 kts 309°
2026-05-06 07:01 20.85893 60.64656 42916 ft 474 kts 309°
2026-05-06 07:01 20.90161 60.59281 42907 ft 474 kts 309°
2026-05-06 07:02 20.94445 60.53907 42910 ft 474 kts 309°
2026-05-06 07:02 20.98720 60.48532 42904 ft 474 kts 309°
2026-05-06 07:03 21.02994 60.43147 42907 ft 474 kts 309°
2026-05-06 07:03 21.07264 60.37758 42907 ft 474 kts 309°
2026-05-06 07:04 21.11517 60.32412 42906 ft 474 kts 309°
2026-05-06 07:04 21.15777 60.27021 42905 ft 474 kts 309°
2026-05-06 07:05 21.20037 60.21620 42905 ft 474 kts 309°
2026-05-06 07:05 21.24300 60.16217 42906 ft 474 kts 309°
2026-05-06 07:06 21.28571 60.10829 42905 ft 474 kts 309°
2026-05-06 07:06 21.32832 60.05436 42905 ft 474 kts 309°
2026-05-06 07:07 21.37088 60.00038 42905 ft 474 kts 309°
2026-05-06 07:07 21.41351 59.94641 42904 ft 473 kts 309°
2026-05-06 07:08 21.45611 59.89243 42904 ft 473 kts 309°
2026-05-06 07:08 21.49863 59.83847 42902 ft 473 kts 309°
2026-05-06 07:09 21.54084 59.78483 42906 ft 473 kts 309°
2026-05-06 07:09 21.58333 59.73078 42904 ft 473 kts 309°
2026-05-06 07:10 21.62563 59.67663 42900 ft 473 kts 309°
2026-05-06 07:10 21.66789 59.62240 42906 ft 473 kts 309°
2026-05-06 07:11 21.71017 59.56815 42906 ft 473 kts 309°
2026-05-06 07:11 21.75247 59.51388 42904 ft 473 kts 309°
2026-05-06 07:12 21.79472 59.45961 42908 ft 473 kts 309°
2026-05-06 07:12 21.83672 59.40560 42909 ft 473 kts 309°
2026-05-06 07:13 21.87896 59.35125 42910 ft 473 kts 308°
2026-05-06 07:13 21.92119 59.29684 42915 ft 473 kts 308°
2026-05-06 07:14 21.96338 59.24242 42916 ft 473 kts 308°
2026-05-06 07:14 22.00548 59.18808 42924 ft 472 kts 308°
2026-05-06 07:15 22.04757 59.13368 42923 ft 472 kts 308°
2026-05-06 07:15 22.08938 59.07959 42927 ft 472 kts 308°
2026-05-06 07:16 22.13145 59.02512 42938 ft 472 kts 308°
2026-05-06 07:16 22.17349 58.97063 42931 ft 472 kts 308°
2026-05-06 07:17 22.21540 58.91615 42933 ft 472 kts 308°
2026-05-06 07:17 22.25070 58.85690 42941 ft 469 kts 297°
2026-05-06 07:18 22.28172 58.79499 42939 ft 469 kts 296°
2026-05-06 07:18 22.31210 58.73261 42937 ft 469 kts 296°
2026-05-06 07:19 22.34244 58.67033 42936 ft 468 kts 296°
2026-05-06 07:19 22.37272 58.60839 42937 ft 468 kts 296°
2026-05-06 07:20 22.40318 58.54613 42939 ft 468 kts 296°
2026-05-06 07:20 22.43361 58.48389 42935 ft 468 kts 296°
2026-05-06 07:21 22.46399 58.42167 42938 ft 468 kts 296°
2026-05-06 07:21 22.49430 58.35948 42939 ft 467 kts 296°
2026-05-06 07:22 22.52442 58.29762 42939 ft 467 kts 296°
2026-05-06 07:22 22.55467 58.23541 42939 ft 467 kts 296°
2026-05-06 07:23 22.58487 58.17320 42939 ft 466 kts 296°
2026-05-06 07:23 22.61509 58.11092 42938 ft 466 kts 296°
2026-05-06 07:24 22.64500 58.04917 42943 ft 466 kts 296°
2026-05-06 07:24 22.67507 57.98705 42941 ft 465 kts 296°
2026-05-06 07:25 22.70508 57.92494 42944 ft 465 kts 296°
2026-05-06 07:25 22.73507 57.86282 42942 ft 465 kts 296°
2026-05-06 07:26 22.76497 57.80080 42946 ft 465 kts 295°
2026-05-06 07:26 22.79494 57.73857 42950 ft 464 kts 295°
2026-05-06 07:27 22.82462 57.67684 42952 ft 464 kts 295°
2026-05-06 07:27 22.85444 57.61475 42957 ft 464 kts 295°
2026-05-06 07:28 22.88425 57.55262 42966 ft 464 kts 295°
2026-05-06 07:28 22.92889 57.45939 42967 ft 464 kts 295°
2026-05-06 07:29 22.95859 57.39729 42972 ft 464 kts 295°
2026-05-06 07:29 22.98829 57.33512 42970 ft 463 kts 295°
2026-05-06 07:30 23.01794 57.27297 42970 ft 463 kts 295°
2026-05-06 07:30 23.04755 57.21078 42967 ft 463 kts 295°
2026-05-06 07:31 23.07690 57.14900 42966 ft 463 kts 295°
2026-05-06 07:31 23.10646 57.08674 42962 ft 463 kts 295°
2026-05-06 07:32 23.13596 57.02453 42960 ft 463 kts 295°
2026-05-06 07:32 23.16550 56.96220 42952 ft 463 kts 295°
2026-05-06 07:33 23.19477 56.90032 42930 ft 462 kts 295°
2026-05-06 07:33 23.22427 56.83786 42943 ft 462 kts 295°
2026-05-06 07:34 23.25345 56.77601 42919 ft 462 kts 295°
2026-05-06 07:34 23.28281 56.71372 42931 ft 462 kts 295°
2026-05-06 07:35 23.31212 56.65144 42927 ft 462 kts 295°
2026-05-06 07:35 23.34140 56.58917 42914 ft 462 kts 295°
2026-05-06 07:36 23.36567 56.53748 42926 ft 462 kts 295°
2026-05-06 07:36 23.39486 56.47522 42908 ft 461 kts 295°
2026-05-06 07:37 23.42403 56.41294 42915 ft 461 kts 295°
2026-05-06 07:37 23.45316 56.35066 42909 ft 461 kts 295°
2026-05-06 07:38 23.48225 56.28839 42905 ft 461 kts 295°
2026-05-06 07:38 23.51131 56.22610 42904 ft 461 kts 295°
2026-05-06 07:39 23.54038 56.16372 42903 ft 461 kts 295°
2026-05-06 07:39 23.56927 56.10173 42894 ft 461 kts 295°
2026-05-06 07:40 23.59828 56.03933 42892 ft 461 kts 295°
2026-05-06 07:40 23.62720 55.97699 42894 ft 461 kts 295°
2026-05-06 07:41 23.65613 55.91458 42899 ft 461 kts 295°
2026-05-06 07:41 23.68505 55.85216 42890 ft 461 kts 294°
2026-05-06 07:42 23.71394 55.78974 42885 ft 461 kts 295°
2026-05-06 07:42 23.74281 55.72719 42890 ft 461 kts 294°
2026-05-06 07:43 23.77161 55.66466 42880 ft 461 kts 294°
2026-05-06 07:43 23.80038 55.60214 42878 ft 461 kts 294°
2026-05-06 07:44 23.82892 55.54005 42881 ft 461 kts 294°
2026-05-06 07:44 23.85653 55.47691 42878 ft 460 kts 292°
2026-05-06 07:45 23.88233 55.41301 42874 ft 460 kts 291°
2026-05-06 07:45 23.90813 55.34914 42873 ft 460 kts 292°
2026-05-06 07:46 23.93801 55.28719 42861 ft 462 kts 299°
2026-05-06 07:46 23.97226 55.22771 42862 ft 462 kts 300°
2026-05-06 07:47 24.00712 55.16863 42853 ft 462 kts 300°
2026-05-06 07:47 24.04200 55.10946 42848 ft 462 kts 300°
2026-05-06 07:48 24.07645 55.05070 42850 ft 461 kts 300°
2026-05-06 07:48 24.11108 54.99146 42842 ft 461 kts 300°
2026-05-06 07:49 24.14567 54.93231 42834 ft 461 kts 300°
2026-05-06 07:49 24.18017 54.87310 42828 ft 461 kts 300°
2026-05-06 07:50 24.21469 54.81378 42830 ft 461 kts 300°
2026-05-06 07:50 24.24917 54.75448 42825 ft 461 kts 300°
2026-05-06 07:51 24.28360 54.69522 42827 ft 460 kts 300°
2026-05-06 07:51 24.31779 54.63632 42828 ft 460 kts 300°
2026-05-06 07:52 24.34326 54.57280 42833 ft 454 kts 284°
2026-05-06 07:52 24.36113 54.50628 42831 ft 454 kts 284°
2026-05-06 07:53 24.37866 54.43967 42830 ft 454 kts 284°
2026-05-06 07:53 24.39612 54.37298 42828 ft 454 kts 284°
2026-05-06 07:54 24.41351 54.30642 42826 ft 454 kts 284°
2026-05-06 07:54 24.43078 54.24013 42821 ft 454 kts 284°
2026-05-06 07:55 24.44811 54.17351 42818 ft 454 kts 284°
2026-05-06 07:55 24.46539 54.10694 42813 ft 454 kts 284°
2026-05-06 07:56 24.48265 54.04033 42813 ft 453 kts 283°
2026-05-06 07:56 24.49983 53.97388 42817 ft 453 kts 283°
2026-05-06 07:57 24.51696 53.90749 42815 ft 453 kts 283°
2026-05-06 07:57 24.53414 53.84076 42817 ft 453 kts 283°
2026-05-06 07:58 24.55126 53.77418 42819 ft 453 kts 283°
2026-05-06 07:58 24.56833 53.70762 42819 ft 452 kts 283°
2026-05-06 07:59 24.58537 53.64106 42823 ft 452 kts 283°
2026-05-06 07:59 24.60238 53.57449 42824 ft 452 kts 283°
2026-05-06 08:00 24.61934 53.50797 42820 ft 452 kts 283°
2026-05-06 08:00 24.63615 53.44192 42829 ft 451 kts 283°
2026-05-06 08:01 24.65306 53.37532 42833 ft 451 kts 283°
2026-05-06 08:01 24.66993 53.30879 42804 ft 452 kts 283°
2026-05-06 08:02 24.67833 53.27558 42411 ft 449 kts 283°
2026-05-06 08:02 24.68671 53.24247 41707 ft 450 kts 283°
2026-05-06 08:02 24.69509 53.20926 40941 ft 452 kts 283°
2026-05-06 08:02 24.70352 53.17582 40200 ft 455 kts 283°
2026-05-06 08:03 24.71190 53.14257 39496 ft 457 kts 283°
2026-05-06 08:03 24.72040 53.10882 38804 ft 458 kts 283°
2026-05-06 08:03 24.72891 53.07497 38049 ft 460 kts 283°
2026-05-06 08:03 24.73744 53.04105 37267 ft 460 kts 283°
2026-05-06 08:04 24.74597 53.00709 36514 ft 461 kts 283°
2026-05-06 08:04 24.75451 52.97304 35783 ft 463 kts 283°
2026-05-06 08:04 24.76308 52.93884 35068 ft 463 kts 283°
2026-05-06 08:04 24.77162 52.90471 34373 ft 462 kts 283°
2026-05-06 08:05 24.78016 52.87058 33673 ft 460 kts 283°
2026-05-06 08:05 24.78864 52.83661 32911 ft 459 kts 283°
2026-05-06 08:05 24.79696 52.80328 32184 ft 457 kts 283°
2026-05-06 08:05 24.80547 52.76911 31448 ft 456 kts 283°
2026-05-06 08:06 24.81374 52.73588 30758 ft 455 kts 283°
2026-05-06 08:06 24.82209 52.70232 30067 ft 453 kts 283°
2026-05-06 08:06 24.83039 52.66888 29279 ft 452 kts 283°
2026-05-06 08:06 24.83865 52.63560 28499 ft 442 kts 283°
2026-05-06 08:07 24.84658 52.60370 27757 ft 420 kts 283°
2026-05-06 08:07 24.85416 52.57314 27032 ft 409 kts 283°
2026-05-06 08:07 24.86149 52.54342 26336 ft 409 kts 283°
2026-05-06 08:07 24.86901 52.51290 25625 ft 412 kts 284°
2026-05-06 08:08 24.87656 52.48231 24931 ft 414 kts 284°
2026-05-06 08:08 24.88412 52.45164 24256 ft 416 kts 284°
2026-05-06 08:08 24.89152 52.42077 23595 ft 417 kts 283°
2026-05-06 08:08 24.89531 52.38920 22847 ft 417 kts 272°
2026-05-06 08:09 24.89611 52.35714 22079 ft 418 kts 271°
2026-05-06 08:09 24.89649 52.32508 21334 ft 418 kts 271°
2026-05-06 08:09 24.89688 52.29349 20606 ft 417 kts 271°
2026-05-06 08:09 24.89685 52.26148 19892 ft 417 kts 268°
2026-05-06 08:10 24.89497 52.22957 19190 ft 416 kts 265°
2026-05-06 08:10 24.89259 52.19790 18533 ft 414 kts 265°
2026-05-06 08:10 24.89022 52.16642 18079 ft 407 kts 265°
2026-05-06 08:10 24.88792 52.13574 17885 ft 393 kts 265°
2026-05-06 08:11 24.88640 52.10637 17803 ft 377 kts 272°
2026-05-06 08:11 24.89178 52.07890 17457 ft 370 kts 293°
2026-05-06 08:11 24.90585 52.05517 16783 ft 371 kts 314°
2026-05-06 08:11 24.92696 52.03887 16049 ft 373 kts 336°
2026-05-06 08:12 24.95165 52.03101 15330 ft 375 kts 348°
2026-05-06 08:12 24.97724 52.02466 14612 ft 376 kts 346°
2026-05-06 08:12 25.00252 52.01677 13931 ft 377 kts 343°
2026-05-06 08:12 25.02738 52.00766 13190 ft 377 kts 341°
2026-05-06 08:13 25.05208 51.99783 12436 ft 376 kts 340°
2026-05-06 08:13 25.07654 51.98771 11711 ft 375 kts 339°
2026-05-06 08:13 25.10071 51.97743 11221 ft 367 kts 339°
2026-05-06 08:13 25.12406 51.96736 11031 ft 351 kts 339°
2026-05-06 08:14 25.14598 51.95784 11007 ft 332 kts 339°
2026-05-06 08:14 25.16688 51.94874 11002 ft 313 kts 339°
2026-05-06 08:14 25.18664 51.93988 10820 ft 302 kts 336°
2026-05-06 08:14 25.20455 51.92797 10437 ft 301 kts 322°
2026-05-06 08:15 25.21854 51.91080 9980 ft 303 kts 303°
2026-05-06 08:15 25.22596 51.88903 9502 ft 306 kts 280°
2026-05-06 08:15 25.22420 51.86563 9010 ft 310 kts 252°
2026-05-06 08:15 25.21264 51.84569 8525 ft 312 kts 224°
2026-05-06 08:16 25.19530 51.83193 8041 ft 309 kts 212°
2026-05-06 08:16 25.17715 51.81994 7569 ft 299 kts 211°
2026-05-06 08:16 25.15923 51.80809 7113 ft 302 kts 211°
2026-05-06 08:16 25.14113 51.79599 6648 ft 303 kts 211°
2026-05-06 08:17 25.12336 51.78402 6195 ft 304 kts 211°
2026-05-06 08:17 25.10529 51.77180 5651 ft 306 kts 211°
2026-05-06 08:17 25.08704 51.75942 5054 ft 309 kts 211°
2026-05-06 08:17 25.06858 51.74691 4460 ft 309 kts 211°
2026-05-06 08:18 25.05078 51.73484 3872 ft 292 kts 210°
2026-05-06 08:18 25.03521 51.72145 3341 ft 277 kts 229°
2026-05-06 08:18 25.02785 51.70319 3060 ft 255 kts 265°
2026-05-06 08:18 25.03115 51.68543 3000 ft 227 kts 304°
2026-05-06 08:19 25.04284 51.67484 2988 ft 216 kts 344°
2026-05-06 08:19 25.05759 51.67369 2997 ft 215 kts
2026-05-06 08:19 25.07235 51.67440 3014 ft 210 kts
2026-05-06 08:19 25.08650 51.67845 2956 ft 211 kts 20°
2026-05-06 08:20 25.10007 51.68411 2817 ft 210 kts 22°
2026-05-06 08:20 25.11462 51.68746 2674 ft 214 kts
2026-05-06 08:20 25.12854 51.68397 2548 ft 204 kts 338°
2026-05-06 08:20 25.14103 51.67724 2342 ft 197 kts 337°
2026-05-06 08:21 25.15333 51.67159 2098 ft 185 kts 343°
2026-05-06 08:21 25.16502 51.66675 1857 ft 173 kts 341°
2026-05-06 08:21 25.17563 51.66204 1646 ft 158 kts 340°
2026-05-06 08:21 25.18544 51.65767 1458 ft 149 kts 340°
2026-05-06 08:22 25.19508 51.65342 1271 ft 149 kts 340°
2026-05-06 08:22 25.20475 51.64915 1085 ft 148 kts 342°
2026-05-06 08:22 25.21110 51.64636 956 ft 148 kts 343°
2026-05-06 08:22 25.22065 51.64220 758 ft 148 kts 342°
2026-05-06 08:23 25.23308 51.63619 489 ft 147 kts 339°
2026-05-06 08:23 25.24262 51.63203 355 ft 148 kts 341°
2026-05-06 08:23 25.24919 51.62941 238 ft 147 kts 342°
2026-05-06 08:23 25.25866 51.62526 70 ft 146 kts 342°
2026-05-06 08:24 25.26763 51.62144 30 ft 125 kts 338°
2026-05-06 08:24 25.27334 51.61874 28 ft 44 kts 323°
2026-05-06 08:24 25.27458 51.61731 29 ft 18 kts 298°
2026-05-06 08:24 25.27386 51.61667 29 ft 20 kts 163°
2026-05-06 08:25 25.27228 51.61737 28 ft 23 kts 156°
2026-05-06 08:25 25.27104 51.61741 28 ft 18 kts 229°
2026-05-06 08:25 25.27043 51.61574 28 ft 24 kts 248°
2026-05-06 08:25 25.26943 51.61425 28 ft 23 kts 206°
2026-05-06 08:26 25.26858 51.61360 28 ft 12 kts 260°
2026-05-06 08:26 25.26881 51.61273 28 ft 0 kts 292°